This is the latest recevied weather packets stored in our database for station/object KI4MRC. If no packets are shown the sender has not sent any weather packets the latest 10 day(s).
| Time | Temp. | Humidity | Pressure | Rain* | Wind** | Luminosity | Snow |
|---|---|---|---|---|---|---|---|
| 1777757459 | 33.33° C | 45% | 1009.9 hPa | 0 mm | - | 75 W/m² | - |
| 1777757158 | 33.33° C | 42% | 1009.9 hPa | 0 mm | - | 65 W/m² | - |
| 1777756855 | 33.89° C | 42% | 1010 hPa | 0 mm | - | 67 W/m² | - |
| 1777756550 | 33.89° C | 43% | 1009.9 hPa | 0 mm | - | 79 W/m² | - |
| 1777756248 | 33.89° C | 42% | 1009.9 hPa | 0 mm | - | 74 W/m² | - |
| 1777755945 | 33.89° C | 45% | 1009.9 hPa | 0 mm | - | 77 W/m² | - |
| 1777755642 | 33.89° C | 43% | 1009.4 hPa | 0 mm | - | 98 W/m² | - |
| 1777755036 | 33.89° C | 43% | 1009.7 hPa | 0 mm | - | 75 W/m² | - |
| 1777754127 | 33.89° C | 45% | 1009.7 hPa | 0 mm | - | 107 W/m² | - |
| 1777753824 | 33.89° C | 44% | 1009.9 hPa | 0 mm | - | 120 W/m² | - |
| 1777753520 | 34.44° C | 42% | 1010 hPa | 0 mm | - | 102 W/m² | - |
| 1777753219 | 34.44° C | 42% | 1009.8 hPa | 0 mm | - | 73 W/m² | - |
| 1777752914 | 34.44° C | 43% | 1010.1 hPa | 0 mm | - | 68 W/m² | - |
| 1777752610 | 34.44° C | 44% | 1010 hPa | 0 mm | - | 88 W/m² | - |
| 1777752307 | 34.44° C | 45% | 1009.9 hPa | 0 mm | - | 204 W/m² | - |
| 1777752005 | 34.44° C | 44% | 1010 hPa | 0 mm | - | 177 W/m² | - |
| 1777751702 | 34.44° C | 46% | 1010 hPa | 0 mm | - | 203 W/m² | - |
| 1777751095 | 34.44° C | 45% | 1010 hPa | 0 mm | - | 82 W/m² | - |
| 1777750488 | 35° C | 49% | 1010.1 hPa | 0 mm | - | 87 W/m² | - |
| 1777750184 | 34.44° C | 48% | 1010.2 hPa | 0 mm | - | 200 W/m² | - |
| 1777749880 | 35° C | 46% | 1010.4 hPa | 0 mm | - | 135 W/m² | - |
| 1777749577 | 35° C | 45% | 1010.3 hPa | 0 mm | - | 238 W/m² | - |
| 1777749275 | 35° C | 45% | 1010.1 hPa | 0 mm | - | 365 W/m² | - |
| 1777748973 | 35° C | 46% | 1010.3 hPa | 0 mm | - | 265 W/m² | - |
| 1777748670 | 35° C | 46% | 1010.4 hPa | 0 mm | - | 702 W/m² | - |
* Rain latest hour (hover to see other rain measurements)
** Current wind speed in m/s (hover to see current wind gust speed)